GEFSCGP_con_cape1000_150.txt.gz
Probability
0 0 0 0 0 0 0 0 0 0 0 3 0 6 10 13 13 13 13 13 10 10 10 3 3 6 6 6 10 13 13 10 10 10 6 10 10 10 10 13 13 13 13 10
0 0 0 0 0 0 0 0 0 0 0 3 0 0 6 13 13 16 13 10 13 13 10 3 3 3 6 10 10 10 10 6 3 3 3 6 6 6 13 16 13 10 13 10
0 0 0 0 0 0 0 0 0 0 0 0 3 6 6 10 10 16 13 13 13 13 6 6 6 6 6 10 10 10 10 6 6 3 3 6 6 10 13 13 13 10 10 10
0 0 0 0 0 0 0 0 0 0 0 0 0 0 3 6 10 16 16 10 10 10 10 6 6 6 6 10 10 6 6 3 3 3 3 3 6 6 6 6 6 6 10 10
0 0 0 0 0 0 0 0 0 0 0 0 0 0 3 10 6 10 13 10 6 10 6 6 6 6 10 10 10 3 3 3 3 3 3 3 3 3 6 3 6 3 3 6
0 0 0 0 0 0 0 0 0 0 0 0 0 0 0 3 6 3 6 10 6 6 6 6 6 10 6 6 6 6 3 3 3 3 3 3 3 3 3 6 6 3 0 0
0 0 0 0 0 0 0 0 0 0 0 0 0 0 0 0 0 3 3 13 10 6 3 10 10 6 6 6 6 6 3 3 0 3 3 3 3 3 3 6 3 0 0 0
0 0 0 0 0 0 0 0 0 0 0 0 0 0 0 3 6 3 0 6 6 10 6 6 10 6 6 6 6 6 3 0 0 0 0 0 0 0 0 3 0 0 0 0
0 0 0 0 0 0 0 0 0 0 0 0 0 0 3 6 6 3 6 3 6 10 6 3 3 6 6 3 0 0 0 0 0 0 0 0 0 0 0 0 0 0 0 0
0 0 0 0 0 0 0 0 0 0 0 0 0 0 0 3 6 6 3 6 6 10 3 3 3 3 0 0 0 0 3 0 0 0 0 0 0 0 0 0 0 0 0 0
0 0 0 0 0 0 0 0 0 0 0 0 0 0 0 3 6 6 6 6 10 6 3 3 0 0 0 0 0 0 3 0 0 0 0 0 0 0 0 0 0 0 0 0
0 0 0 0 0 0 0 0 0 0 0 0 0 0 0 3 3 6 6 6 6 6 0 0 0 0 0 0 0 0 0 0 0 0 0 0 0 0 0 0 0 0 0 0
0 0 0 0 0 0 0 0 0 0 0 0 0 0 0 3 3 6 6 6 6 3 0 0 0 0 0 0 0 0 0 0 0 0 0 0 0 0 0 0 0 0 0 0
0 0 0 0 0 0 0 0 0 0 0 0 0 0 0 0 3 6 6 6 3 3 0 0 0 0 0 0 0 0 0 0 0 0 0 0 0 0 0 0 0 0 0 0
0 0 0 0 0 0 0 0 0 0 0 0 0 0 0 0 3 6 6 6 3 3 0 0 0 0 0 0 0 0 0 0 0 0 0 0 0 0 0 0 0 0 0 0
0 0 0 0 0 0 0 0 0 0 0 0 0 0 0 0 0 6 6 3 3 3 0 0 0 0 0 0 0 0 0 0 0 0 0 0 0 0 0 0 0 0 0 0
0 0 0 0 0 0 0 0 0 0 0 0 0 0 0 0 0 6 6 3 3 3 0 0 0 0 0 0 0 0 0 0 0 0 0 0 0 0 0 0 0 0 0 0
0 0 0 0 0 0 0 0 0 0 0 0 0 0 0 0 0 0 0 3 3 3 0 0 0 0 0 0 0 0 0 0 0 0 0 0 0 0 0 0 0 0 0 0
0 0 0 0 0 0 0 0 0 0 0 0 0 0 0 0 0 0 0 3 3 3 0 0 0 0 0 0 0 0 0 0 0 0 0 0 0 0 0 0 0 0 0 0
0 0 0 0 0 0 0 0 0 0 0 0 0 0 0 0 0 0 0 0 0 0 0 0 0 0 0 0 0 0 0 0 0 0 0 0 0 0 0 0 0 0 0 0
0 0 0 0 0 0 0 0 0 0 0 0 0 0 0 0 0 0 0 0 0 0 0 0 0 0 0 0 0 0 0 0 0 0 0 0 0 0 0 0 0 0 0 0
0 0 0 0 0 0 0 0 0 0 0 0 0 0 0 0 0 0 0 0 0 0 0 0 0 0 0 0 0 0 0 0 0 0 0 0 0 0 0 0 0 0 0 0
0 0 0 0 0 0 0 0 0 0 0 0 0 0 0 0 0 0 0 0 0 0 0 0 0 0 0 0 0 0 0 0 0 0 0 0 0 0 0 0 0 0 0 0
0 0 0 0 0 0 0 0 0 0 0 0 0 0 0 0 0 0 0 0 0 0 0 0 0 0 0 0 0 0 0 0 0 0 0 0 0 0 0 0 0 0 0 0
0 0 0 0 0 0 0 0 0 0 0 0 0 0 0 0 0 0 0 0 0 0 0 0 0 0 0 0 0 0 0 0 0 0 0 0 0 0 0 0 0 0 0 0
0 0 0 0 0 0 0 0 0 0 0 0 0 0 0 0 0 0 0 0 0 0 0 0 0 0 0 0 0 0 0 0 0 0 0 0 0 0 0 0 0 0 0 0

GEFSCGP_con_cape1000_156.txt.gz
Probability
0 0 0 0 0 0 0 0 3 3 13 13 6 3 29 35 39 32 32 32 42 39 32 26 29 35 42 39 35 32 29 32 29 29 23 23 26 23 19 19 23 23 19 19
0 0 0 0 0 0 0 0 3 3 10 13 6 10 16 26 32 26 19 26 32 39 29 32 32 39 29 26 23 26 23 26 32 39 32 32 26 19 16 16 16 16 16 19
0 0 0 0 0 0 0 0 0 3 6 3 10 3 13 19 23 35 32 32 39 35 26 26 26 32 26 16 16 16 19 26 32 29 29 29 23 23 16 16 16 16 16 16
0 0 0 0 0 0 0 0 0 3 6 0 0 0 10 19 19 32 39 32 42 39 32 23 26 29 26 16 13 16 16 19 23 26 29 29 26 19 16 16 16 16 16 16
0 0 0 0 0 0 0 0 3 3 0 0 0 0 6 10 10 23 35 42 39 35 29 23 26 29 23 19 16 16 19 19 16 16 19 23 19 16 16 16 16 16 16 16
0 0 0 0 0 0 0 3 3 3 0 0 0 0 3 13 13 13 16 35 29 35 26 23 26 23 23 19 16 16 13 13 16 16 13 13 13 10 13 10 10 10 10 10
0 0 0 0 0 0 0 3 0 0 0 0 0 0 0 13 6 16 29 32 39 32 29 26 23 26 29 19 16 16 13 16 16 13 13 10 6 6 6 6 6 6 6 6
0 0 0 0 3 0 0 0 0 0 0 0 0 0 6 6 6 6 32 32 39 23 26 26 23 26 29 19 16 13 13 10 10 10 10 3 6 3 3 3 3 3 3 3
0 0 0 0 0 0 0 0 0 0 0 0 0 0 6 13 16 16 23 29 29 23 26 19 19 26 23 16 16 13 10 10 6 6 6 6 6 3 3 3 3 3 3 3
0 0 0 0 0 0 0 0 0 0 0 0 0 0 3 10 13 19 19 32 23 32 23 26 19 23 19 16 16 13 10 6 6 6 6 3 3 6 3 6 3 3 3 3
0 0 0 0 0 0 0 0 0 0 0 0 0 0 0 6 19 23 26 26 26 26 26 19 19 10 10 6 10 6 6 6 3 6 6 6 6 6 3 3 3 3 3 3
0 0 0 0 0 0 0 0 0 0 0 0 0 0 0 13 23 23 32 23 23 23 19 16 13 10 3 6 6 6 6 6 6 6 6 3 3 3 3 3 3 3 3 0
0 0 0 0 0 0 0 0 0 0 0 0 0 0 6 16 19 23 29 16 13 13 16 13 10 6 3 6 6 6 6 3 3 3 3 3 3 3 3 3 0 0 0 0
0 0 0 0 0 0 0 0 0 0 0 0 0 0 10 13 19 23 23 13 10 6 13 13 10 0 0 3 3 3 3 3 3 3 3 3 3 3 3 0 0 0 0 0
0 0 0 0 0 0 0 0 0 0 0 0 0 0 6 13 19 23 23 13 10 6 6 6 6 3 0 0 0 0 0 0 3 3 3 3 3 0 0 0 0 0 0 0
6 0 0 0 0 0 0 0 0 0 0 0 0 3 13 16 23 23 13 13 6 6 6 3 0 3 3 3 3 0 0 0 0 0 0 0 0 0 0 0 0 0 0 0
0 0 0 0 0 0 0 0 0 0 0 0 0 6 16 16 16 19 19 10 10 6 3 0 0 0 3 0 0 0 0 0 0 0 0 0 0 0 0 0 0 0 0 0
6 0 0 0 0 0 0 0 0 0 3 3 16 16 10 13 13 13 13 10 10 6 0 0 0 0 0 0 0 0 0 0 0 0 0 0 0 0 0 0 0 0 0 0
10 3 0 0 0 0 0 3 3 3 10 6 13 13 6 10 6 6 6 6 10 10 3 3 0 0 0 0 0 0 0 0 0 0 0 0 0 0 0 0 0 0 0 0
3 10 3 0 0 0 0 3 0 0 6 3 6 6 6 6 6 6 6 6 6 10 6 0 0 0 0 0 0 0 0 0 0 0 0 0 0 0 0 0 0 0 0 0
0 3 0 0 0 3 3 0 0 0 6 6 10 10 6 3 6 6 6 6 10 6 3 0 0 0 0 0 0 0 0 0 0 0 0 0 0 0 0 0 0 0 0 0
0 0 0 0 0 0 3 0 3 13 16 13 13 10 6 3 3 6 6 3 6 3 3 0 0 0 0 0 0 0 0 0 0 0 0 0 0 0 0 0 0 0 0 0
0 0 0 3 0 10 6 10 10 10 16 16 13 10 10 6 3 6 6 6 3 3 3 0 0 0 0 0 0 0 0 0 0 0 0 0 0 0 0 0 0 0 0 0
0 3 3 3 3 3 6 6 10 10 13 6 10 10 6 6 3 6 6 6 0 0 0 0 0 0 0 0 0 0 0 0 0 0 0 0 0 0 0 0 0 0 0 0
3 3 6 6 6 3 3 10 10 6 6 6 6 3 3 6 3 6 3 0 0 0 0 0 0 0 0 0 0 0 0 0 0 0 0 0 0 0 0 0 0 0 0 0
6 6 3 3 6 6 6 10 3 3 3 6 0 0 0 0 3 3 0 0 0 0 0 0 0 0 0 0 0 0 0 0 0 0 0 0 0 0 0 0 0 0 0 0

GEFSCGP_con_cape1000_162.txt.gz
Probability
0 0 0 0 0 0 0 0 0 0 0 3 6 10 26 23 23 29 32 29 42 42 45 45 42 45 45 48 45 42 45 39 42 45 39 35 32 29 29 29 26 23 23 26
0 0 0 0 0 0 0 0 0 0 0 3 10 10 16 19 23 29 32 39 39 32 42 35 39 39 42 42 39 35 32 29 32 32 32 32 32 26 29 16 16 16 16 19
0 0 0 0 0 0 0 0 0 0 0 6 16 13 13 13 19 26 23 19 29 29 42 39 39 32 32 35 39 29 29 29 32 32 26 26 26 26 23 16 13 16 16 16
0 0 0 0 0 0 0 0 0 0 0 3 0 3 13 16 16 26 23 23 19 29 42 39 35 32 32 32 32 32 29 26 29 29 26 26 29 23 23 19 16 13 13 16
0 0 0 0 0 0 0 0 0 0 3 0 0 0 6 16 23 26 23 23 32 35 39 39 32 32 32 29 32 26 26 23 23 26 26 26 16 23 13 13 13 13 13 13
0 0 0 0 0 0 0 0 0 0 0 0 0 0 6 10 19 29 26 29 32 42 35 35 29 32 32 29 26 26 23 23 23 19 23 23 19 13 13 13 10 13 13 10
0 0 0 0 0 0 0 0 0 0 0 0 0 0 10 6 19 26 29 29 35 32 32 42 32 35 32 32 29 26 23 19 19 19 23 19 13 10 13 10 10 10 6 6
0 0 0 0 0 0 0 0 0 0 0 0 0 0 6 13 16 23 32 29 32 35 32 39 39 35 35 35 32 23 23 19 19 16 16 16 16 10 6 6 3 3 3 6
0 0 0 0 0 0 0 0 0 0 0 0 0 3 3 13 10 16 23 32 29 35 35 32 35 32 26 26 26 19 19 16 16 13 13 13 10 10 10 6 3 3 6 6
0 0 0 0 0 0 0 0 0 0 0 0 0 3 6 13 13 23 23 29 35 42 39 42 35 35 26 23 19 19 19 16 13 10 10 6 6 6 6 0 0 0 3 3
0 0 0 0 0 0 0 0 0 0 0 0 0 3 6 16 32 32 19 26 29 39 32 35 23 19 23 19 16 16 16 16 13 10 6 6 6 6 6 6 3 3 3 3
0 0 0 0 0 0 0 0 0 0 0 0 0 6 3 10 23 35 29 29 32 35 26 23 19 16 16 16 13 13 13 10 6 6 6 6 6 6 6 3 3 3 3 3
0 3 0 0 0 0 0 0 0 0 0 0 0 3 6 13 26 26 26 26 26 29 23 16 16 16 16 13 13 10 10 10 6 6 6 6 6 6 3 3 3 3 3 3
0 0 0 0 0 0 0 0 0 0 0 0 0 0 10 16 23 23 29 29 23 26 19 13 16 16 13 13 10 10 10 10 6 6 6 6 3 3 3 3 3 0 0 0
0 3 0 0 0 0 0 0 0 0 0 0 0 0 6 16 19 26 32 29 26 23 16 16 16 13 10 10 10 10 10 10 6 3 3 3 3 3 0 0 0 0 0 0
3 0 0 0 0 0 0 0 0 0 0 0 0 3 16 19 13 19 19 26 19 23 19 19 10 10 6 6 6 10 10 6 3 3 3 3 3 0 0 0 0 0 0 0
0 3 3 0 0 0 0 0 0 0 0 0 3 13 16 16 13 19 23 13 23 23 19 16 10 10 10 6 6 6 6 3 3 3 3 3 0 0 0 0 0 0 0 0
3 6 13 0 0 0 0 0 0 0 0 3 10 16 19 16 16 19 19 13 19 16 6 6 6 10 10 6 6 6 3 3 3 3 0 0 0 0 0 0 0 0 0 0
6 3 0 0 0 0 0 0 0 0 0 13 16 16 16 13 13 13 19 16 16 16 10 3 3 6 10 6 3 3 3 0 0 0 0 0 0 0 0 0 0 0 0 0
3 6 6 3 0 0 0 0 0 0 6 10 16 13 13 16 10 16 19 13 10 13 6 6 3 3 6 6 3 0 0 0 0 0 0 0 0 0 0 0 0 0 0 0
3 3 3 0 0 3 0 0 0 0 13 13 16 19 16 23 23 19 13 13 16 13 6 3 3 3 3 6 6 0 0 0 0 0 0 0 0 0 0 0 0 0 0 0
3 0 0 3 0 0 0 0 0 29 23 19 23 26 19 19 13 13 13 10 6 6 6 3 3 3 6 6 0 0 0 0 0 0 0 0 0 0 0 0 0 0 0 0
0 6 13 6 10 16 19 19 23 19 23 23 19 19 16 13 10 13 10 6 6 6 6 3 3 3 6 3 3 0 0 0 0 0 0 0 0 0 0 0 0 0 0 0
0 3 6 6 10 10 13 13 16 19 19 16 19 10 10 13 6 6 10 6 6 6 6 3 3 0 0 0 0 0 0 0 0 0 0 0 0 0 0 0 0 0 0 0
6 0 0 16 16 10 3 10 13 13 10 6 10 6 6 6 6 6 6 6 6 6 6 3 3 0 0 0 0 0 0 0 0 0 0 0 0 0 0 0 0 0 0 0
3 10 13 13 16 16 16 13 10 13 10 6 3 3 6 6 10 6 6 6 6 6 3 3 3 0 0 0 0 0 0 0 3 0 0 0 0 0 0 0 0 0 0 0

GEFSCGP_con_cape1000_168.txt.gz
Probability
0 0 0 0 0 0 0 0 0 3 6 6 6 10 16 10 13 16 16 10 13 19 19 26 26 29 26 19 19 19 23 16 16 13 16 13 13 10 13 10 10 10 13 16
0 0 0 0 0 0 0 0 0 0 3 6 3 13 10 10 10 6 16 16 19 23 29 26 23 29 26 19 16 16 16 19 13 13 16 13 13 13 13 13 13 13 16 16
0 0 0 0 0 0 0 0 0 0 0 0 6 13 10 6 19 10 13 10 16 19 32 32 29 29 23 23 19 19 16 16 16 16 16 13 13 13 13 13 13 13 13 16
0 0 0 0 0 0 0 0 0 0 0 0 0 0 3 6 13 10 10 10 16 23 23 19 26 26 19 19 16 13 10 16 16 16 16 13 13 13 13 13 13 13 10 10
0 0 0 0 0 0 0 0 0 0 0 0 0 0 0 3 16 13 6 10 13 16 23 19 19 26 16 13 6 6 6 10 13 13 16 16 10 10 3 3 6 10 6 6
0 0 0 0 0 0 0 0 0 0 0 0 0 0 0 3 3 6 3 10 13 13 16 13 13 19 16 6 6 6 10 10 13 13 10 10 10 6 3 0 0 0 0 0
0 0 0 0 0 0 0 0 0 0 0 0 0 0 0 0 6 6 3 3 16 13 13 13 16 16 13 10 10 10 10 13 10 10 10 6 0 0 0 0 0 0 0 0
0 0 0 0 0 0 0 0 0 0 0 0 0 0 0 0 6 10 6 10 16 13 13 13 16 13 10 10 10 10 10 10 10 10 3 0 0 0 0 0 0 0 0 0
0 0 0 0 0 0 0 0 0 0 0 0 0 0 0 0 6 6 6 10 16 10 6 10 13 6 10 10 10 10 10 10 10 6 3 0 0 0 0 0 0 0 0 0
0 0 0 0 0 0 0 0 0 0 0 0 0 0 0 3 10 10 10 13 10 6 6 6 3 13 10 10 10 10 6 6 6 3 3 0 0 0 0 0 0 0 0 0
0 0 0 0 0 0 0 0 0 0 0 0 0 0 0 0 3 10 10 10 6 6 6 6 3 10 13 10 10 10 6 6 6 3 3 3 0 0 0 0 0 0 0 0
0 0 0 0 0 0 0 0 0 0 0 0 0 0 0 3 3 6 13 0 0 6 6 6 6 10 13 10 10 10 6 6 6 3 3 3 3 0 0 0 0 0 0 0
0 0 0 0 0 0 0 0 0 0 0 0 0 0 0 3 3 3 3 0 0 0 3 3 10 6 10 6 6 6 6 6 6 3 3 3 0 3 0 0 0 0 0 0
0 0 0 0 0 0 0 0 0 0 0 0 0 0 3 3 10 3 0 0 0 0 0 3 6 3 3 3 3 3 3 3 0 0 0 0 0 0 0 0 0 0 0 0
0 0 0 0 0 0 0 0 0 0 0 0 0 0 0 3 6 6 0 0 0 0 0 0 6 3 3 3 3 3 3 0 0 0 0 0 0 0 0 0 0 0 0 0
0 0 0 0 0 0 0 0 0 0 0 0 0 3 3 6 6 3 0 0 0 0 0 0 0 3 3 3 3 0 3 3 0 0 0 0 0 0 0 0 0 0 0 0
0 0 0 0 0 0 0 0 0 0 3 3 3 3 6 6 6 3 6 6 0 0 0 0 0 0 3 3 3 0 0 0 0 0 0 0 0 0 0 0 0 0 0 0
0 0 0 0 0 0 0 0 0 3 3 0 0 3 6 6 6 3 3 6 3 0 0 0 0 0 0 0 0 0 0 0 0 0 0 0 0 0 0 0 0 0 0 0
0 0 0 0 0 0 0 0 0 0 0 0 3 3 6 3 3 3 0 3 3 0 0 0 0 0 0 0 0 0 0 0 0 0 0 0 0 0 0 0 0 0 0 0
0 0 0 0 0 0 0 0 0 0 3 0 6 6 6 3 3 3 3 0 0 0 0 0 0 0 0 0 0 0 0 0 0 0 0 0 0 0 0 0 0 0 0 0
0 0 0 0 0 0 0 0 0 0 0 3 3 3 3 3 3 3 0 0 0 0 0 0 0 0 0 0 0 0 0 0 0 0 0 0 0 0 0 0 0 0 0 0
0 0 0 0 0 0 0 0 0 0 0 0 3 3 3 0 0 0 0 0 0 0 0 0 0 0 0 0 0 0 0 0 0 0 0 0 0 0 0 0 0 0 0 0
0 0 0 0 0 0 0 0 0 0 0 0 0 0 0 0 3 3 0 0 0 0 0 0 0 0 0 0 0 0 0 0 0 0 0 0 0 0 0 0 0 0 0 0
0 0 0 0 0 0 0 0 0 0 0 3 3 3 3 0 3 3 0 0 0 0 0 0 0 0 0 0 0 0 0 0 0 0 0 0 0 0 0 0 0 0 0 0
0 0 0 0 0 0 0 0 0 0 0 3 3 3 3 3 3 3 3 0 0 0 0 0 0 0 0 0 0 0 0 0 0 0 0 0 0 0 0 0 0 0 0 0
0 0 0 0 0 0 0 0 0 0 3 3 3 3 3 3 3 3 3 0 0 0 0 0 0 0 0 0 0 0 0 0 0 0 0 0 0 0 0 0 0 0 0 0

GEFSCGP_con_cape1000_174.txt.gz
Probability
0 0 0 0 0 0 0 0 0 0 3 3 6 3 16 19 19 13 10 13 16 16 16 13 10 13 10 16 13 13 13 10 10 3 0 0 3 6 3 6 6 6 6 6
0 0 0 0 0 0 0 0 0 0 0 6 6 6 13 19 19 16 10 10 13 16 19 13 13 16 16 16 13 13 13 10 6 6 3 0 3 3 3 6 3 3 6 6
0 0 0 0 0 0 0 0 0 0 0 3 3 6 6 23 13 16 10 10 6 13 16 16 13 13 19 16 16 16 10 3 6 6 3 6 3 6 6 6 6 6 10 10
0 0 0 0 0 0 0 0 0 0 0 0 0 0 6 10 6 10 6 6 16 13 13 10 16 16 13 13 13 13 10 10 10 10 6 6 6 6 6 6 6 3 6 6
0 0 0 0 0 0 0 0 0 0 0 0 0 0 0 6 6 3 0 3 6 16 13 13 13 16 16 10 13 6 10 6 13 10 6 6 6 6 6 3 3 3 6 6
0 0 0 0 0 0 0 0 0 0 0 0 0 0 0 3 3 3 0 3 6 10 13 10 10 13 16 6 3 10 6 10 10 6 6 6 6 6 3 3 3 0 0 0
0 0 0 0 0 0 0 0 0 0 0 0 0 0 0 0 0 3 3 3 6 6 16 16 16 16 19 10 6 6 6 6 10 6 6 6 6 6 3 0 0 0 0 0
0 0 0 0 0 0 0 0 0 0 0 0 0 0 0 0 0 0 0 0 3 3 10 16 16 13 13 10 6 6 6 6 6 6 6 3 0 0 0 0 0 0 0 0
0 0 0 0 0 0 0 0 0 0 0 0 0 0 0 0 0 0 3 3 6 3 10 16 16 10 6 6 3 6 6 6 6 0 0 0 0 0 0 0 0 0 0 0
0 0 0 0 0 0 0 0 0 0 0 0 0 0 0 0 0 0 6 6 6 6 6 10 10 3 3 3 3 6 6 6 0 0 0 0 0 0 0 0 0 0 0 0
0 0 0 0 0 0 0 0 0 0 0 0 0 0 0 0 0 0 3 6 6 6 6 3 6 3 0 0 3 6 3 0 0 0 0 0 0 0 0 0 0 0 0 0
0 0 0 0 0 0 0 0 0 0 0 0 0 0 0 0 0 0 3 6 3 3 3 3 3 3 0 0 0 3 0 0 0 3 3 0 0 0 0 0 0 0 0 0
0 0 0 0 0 0 0 0 0 0 0 0 0 0 0 3 6 3 6 10 6 3 0 0 3 0 0 0 0 3 3 3 3 6 0 0 0 0 0 0 0 0 0 0
0 0 0 0 0 0 0 0 0 0 0 0 0 0 0 3 6 6 6 6 3 0 0 0 0 0 0 0 0 3 3 3 3 3 3 0 0 0 0 0 0 0 0 0
0 0 0 0 0 0 0 0 0 0 0 0 0 0 0 0 3 6 6 3 0 0 0 0 0 0 0 0 0 3 3 3 3 3 3 0 0 0 0 0 0 0 0 0
0 0 0 0 0 0 0 0 0 0 0 0 0 0 0 0 3 6 3 3 0 0 0 0 0 0 0 0 0 0 0 0 0 0 0 0 0 0 0 0 0 0 0 0
0 0 0 0 0 0 0 0 0 0 0 0 0 0 3 3 10 3 3 3 0 0 0 0 0 0 0 0 0 0 0 0 0 0 0 0 0 0 0 0 0 0 0 0
0 0 0 0 0 0 0 0 0 0 0 0 3 3 3 3 3 3 0 0 0 0 0 0 0 0 0 0 0 0 0 0 0 0 0 0 0 0 0 0 0 0 0 0
0 0 0 0 0 0 0 0 0 0 0 3 3 3 3 3 3 3 0 0 0 0 0 0 0 0 0 0 0 0 0 0 0 0 0 0 0 0 0 0 0 0 0 0
0 0 0 0 0 0 0 0 0 0 0 3 3 3 3 3 3 3 0 0 0 0 0 0 0 0 0 0 0 0 0 0 0 0 0 0 0 0 0 0 0 0 0 0
0 0 0 0 0 0 0 0 0 0 0 0 3 3 3 0 0 0 0 0 0 0 0 0 0 0 0 0 0 0 0 0 0 0 0 0 0 0 0 0 0 0 0 0
0 0 0 0 0 0 0 0 0 0 0 0 3 3 3 0 0 0 0 0 0 0 0 0 0 0 0 0 0 0 0 0 0 0 0 0 0 0 0 0 0 0 0 0
0 0 0 0 0 0 0 0 0 0 0 0 3 3 0 0 0 0 0 0 0 0 0 0 0 0 0 0 0 0 0 0 0 0 0 0 0 0 0 0 0 0 0 0
0 0 0 0 0 0 0 0 0 0 0 0 0 0 0 0 0 0 0 0 0 0 0 0 0 0 0 0 0 0 0 0 0 0 0 0 0 0 0 0 0 0 0 0
0 0 0 0 0 0 0 0 0 0 0 0 0 0 0 0 0 0 0 0 0 0 0 0 0 0 0 0 0 0 0 0 0 0 0 0 0 0 0 0 0 0 0 0
0 0 0 0 0 0 0 0 0 0 0 0 0 0 0 0 0 0 0 0 0 0 0 0 0 0 0 0 0 0 0 0 0 0 0 0 0 0 0 0 0 0 0 0

GEFSCGP_con_cape1000_180.txt.gz
Probability
0 0 0 0 0 0 0 0 3 0 0 0 0 13 26 29 35 32 42 52 48 45 42 39 48 52 45 42 42 42 42 42 45 35 35 32 29 29 26 26 19 19 23 23
0 0 0 0 0 0 0 0 3 0 0 0 6 10 19 23 35 32 32 45 45 45 42 42 45 45 45 42 45 42 42 42 39 42 35 35 32 29 29 26 23 19 19 23
0 0 0 0 0 0 0 0 3 0 0 0 0 3 10 13 26 29 32 39 42 45 39 39 39 48 48 45 45 42 42 42 35 35 35 29 26 23 19 23 23 19 19 16
0 0 0 0 0 0 0 0 0 0 0 0 0 0 6 23 23 26 35 35 45 42 35 39 35 39 42 45 45 42 42 39 32 35 32 26 23 19 19 16 19 19 16 13
0 0 0 0 0 0 0 0 0 0 0 0 0 0 0 6 13 19 23 35 32 39 32 35 35 35 42 45 42 39 35 32 29 26 26 26 26 23 19 16 19 10 13 10
0 0 0 0 0 3 3 0 0 0 0 0 0 0 0 6 10 13 23 26 39 39 32 26 35 35 35 45 32 29 26 26 26 26 26 23 23 19 19 16 13 6 10 10
0 0 0 0 0 3 3 0 0 0 0 0 0 0 3 0 3 13 19 19 26 32 35 29 29 35 39 35 32 26 23 26 26 26 26 23 19 10 13 13 13 10 10 10
0 0 0 0 0 0 3 0 0 0 0 0 0 0 3 3 3 3 6 19 26 32 35 26 32 32 35 35 29 26 19 16 16 16 16 19 10 10 10 10 10 6 6 6
0 0 0 0 0 0 0 0 0 0 0 0 0 3 0 0 0 6 13 16 29 29 35 23 23 26 29 26 26 26 16 16 16 13 13 10 6 10 10 6 6 3 3 3
0 0 0 0 0 0 0 0 0 0 0 0 0 0 0 16 6 6 16 26 32 23 19 26 19 19 26 26 26 19 16 13 13 10 10 10 6 6 10 0 0 0 3 3
0 0 0 0 0 0 0 0 0 0 0 0 0 0 0 6 13 16 19 23 29 26 26 19 13 16 23 16 16 13 16 16 10 10 10 10 10 10 6 6 6 6 3 3
0 0 0 0 0 0 0 0 0 0 0 0 0 0 0 6 10 16 23 26 26 26 19 19 13 13 3 10 13 10 10 13 10 10 10 10 10 10 6 6 3 3 3 3
0 0 0 0 0 0 0 0 0 0 0 0 0 0 0 3 13 16 23 32 26 19 13 16 13 10 10 10 10 10 10 10 10 10 10 10 10 6 6 3 3 0 0 0
0 0 0 0 0 0 0 0 0 0 0 0 0 0 0 3 6 13 26 29 23 16 16 10 10 10 10 10 10 10 10 10 10 10 10 6 6 6 6 0 3 0 0 0
0 0 0 0 0 0 0 0 0 0 0 0 0 0 3 3 3 10 26 26 19 16 13 6 6 3 3 10 10 10 6 6 6 6 6 6 6 6 6 3 6 3 0 0
0 0 0 0 0 0 0 0 0 0 0 0 0 0 0 3 6 19 26 26 26 13 10 10 6 3 3 6 6 3 3 3 6 6 6 3 6 6 3 0 6 3 0 0
0 0 0 0 0 0 0 0 0 0 0 0 0 0 0 3 6 23 26 26 23 19 6 10 6 6 3 10 3 3 3 3 3 6 6 3 6 6 6 0 3 3 3 0
0 0 0 0 0 0 0 0 0 0 3 0 0 0 6 6 6 23 26 26 23 16 13 6 6 6 6 10 6 3 3 3 3 6 6 3 6 3 3 0 0 3 3 0
6 0 0 0 0 0 0 0 0 3 3 3 3 3 10 10 16 19 26 23 26 23 16 13 6 6 6 6 3 3 3 3 3 6 6 6 6 6 0 0 0 0 0 0
3 3 0 0 0 0 0 0 3 0 3 0 6 10 13 13 10 13 26 26 23 19 19 13 13 10 10 6 3 3 3 0 0 6 6 6 6 3 0 0 3 0 0 0
0 0 0 0 0 0 0 0 0 0 3 3 6 16 16 13 6 29 26 19 16 16 13 16 16 13 10 3 3 3 3 3 3 6 6 3 3 3 0 3 3 0 0 0
0 0 0 0 0 3 0 0 0 6 16 6 13 13 13 13 10 23 19 16 13 13 13 13 16 13 10 6 6 6 6 3 3 3 3 3 3 0 0 3 3 0 0 0
3 3 3 3 0 10 3 3 13 13 16 13 13 13 16 10 13 10 13 10 10 13 13 16 10 10 3 3 6 3 3 3 3 0 0 0 0 0 0 0 0 0 0 0
3 0 0 0 0 0 0 0 3 10 13 13 13 13 13 3 10 13 13 10 6 10 13 13 6 3 3 3 0 3 0 0 0 0 0 0 0 0 0 0 0 0 0 0
3 0 0 0 3 0 3 6 6 3 10 10 3 6 6 10 10 10 10 6 13 10 13 10 6 3 3 3 3 3 0 0 0 0 0 0 0 0 0 0 0 0 0 0
0 0 0 3 3 3 3 3 0 3 3 3 6 6 6 10 10 10 10 6 10 10 10 10 6 6 3 6 3 0 0 0 0 0 0 0 0 0 0 0 0 0 0 0

GEFSCGP_con_cape1000_186.txt.gz
Probability
0 0 0 0 0 0 0 0 0 0 0 0 0 16 16 16 16 23 26 32 39 45 55 58 55 55 58 58 61 65 58 55 55 55 52 42 42 35 32 29 29 29 23 23
0 0 0 0 0 0 0 0 0 0 0 0 0 3 16 16 10 16 26 29 39 52 58 55 58 58 52 55 55 58 55 55 55 55 48 42 35 26 29 26 26 26 23 23
0 0 0 0 0 0 0 0 0 0 0 0 0 3 3 6 10 13 26 35 39 52 48 55 55 55 55 52 52 52 55 52 52 52 45 35 29 26 26 23 26 26 23 23
0 0 0 0 0 0 0 0 0 3 0 3 0 0 6 6 6 6 23 35 32 42 48 55 52 52 52 52 52 55 48 48 52 48 39 32 29 26 26 26 23 23 19 19
0 0 0 0 0 0 0 0 0 0 0 0 0 0 3 6 6 6 16 32 39 35 45 52 45 39 45 45 42 45 45 42 39 39 35 39 32 26 23 19 19 19 16 16
0 0 0 0 0 0 0 0 0 0 0 0 0 0 3 13 13 16 23 29 39 35 42 35 35 35 35 39 42 45 42 35 35 35 35 35 29 19 19 16 19 16 13 13
0 0 0 0 0 0 0 0 0 0 0 0 0 0 3 6 6 19 19 35 32 32 32 32 32 32 39 32 35 35 39 35 35 32 29 29 23 23 23 16 13 10 10 10
0 0 0 0 0 0 0 0 0 0 0 0 0 0 6 6 13 13 16 19 23 26 23 19 26 32 26 32 35 35 29 26 26 26 26 26 23 16 16 19 10 10 13 13
0 0 0 0 0 0 0 0 0 0 0 0 0 6 13 6 10 6 6 16 19 23 19 16 23 26 26 26 23 29 19 26 26 26 26 26 19 16 16 19 13 13 6 6
0 0 0 0 0 0 0 0 0 0 0 0 0 0 3 10 6 3 10 16 19 26 26 19 23 26 19 19 26 26 23 23 23 26 26 16 13 16 13 10 10 6 6 6
0 0 0 0 0 0 0 0 0 0 0 0 0 0 3 16 10 10 13 16 23 26 26 23 26 26 16 19 23 23 23 23 23 19 23 19 13 13 10 10 6 6 6 6
0 0 0 0 0 0 0 0 0 0 0 0 0 0 10 13 3 6 13 16 26 26 23 23 23 23 16 13 13 16 16 16 19 23 19 16 16 13 13 10 10 13 6 6
0 0 0 0 0 0 0 0 0 0 0 0 0 0 16 13 3 10 16 23 19 26 16 16 23 19 10 10 13 16 16 16 16 13 13 16 16 16 16 13 13 13 6 6
0 0 0 0 0 0 0 0 0 0 0 0 0 3 13 10 6 13 16 19 23 29 26 23 16 19 16 13 13 10 10 13 16 13 13 13 13 13 16 13 10 10 6 6
0 0 0 0 0 0 0 0 0 0 0 0 0 6 13 6 16 16 16 13 13 29 19 16 10 16 10 10 10 10 10 13 10 6 6 13 13 10 6 6 6 10 10 3
3 3 3 0 0 0 0 0 0 0 0 0 0 3 10 23 19 19 10 13 19 16 16 16 19 10 10 10 10 10 10 13 13 6 6 6 6 6 6 6 6 6 10 6
0 10 0 0 0 0 0 0 0 0 0 0 0 3 6 13 16 19 13 19 19 16 16 19 19 13 16 13 13 10 13 13 6 6 6 3 3 6 6 6 6 10 10 6
6 23 19 0 0 0 0 0 0 0 3 0 6 3 10 13 16 23 23 16 23 19 13 13 16 23 23 16 13 13 10 10 6 6 6 6 3 6 6 6 6 13 10 6
16 16 0 0 0 0 0 0 0 0 0 0 6 6 3 13 19 23 26 26 29 26 23 16 19 23 23 16 10 6 6 6 6 6 6 3 3 3 6 6 10 10 6 3
0 16 6 0 0 0 0 0 0 0 0 0 6 10 13 13 13 23 26 16 19 19 23 23 16 16 16 16 13 10 10 6 6 10 10 3 3 3 6 6 10 6 6 3
3 3 0 0 0 0 0 0 0 0 3 6 13 13 16 19 16 29 26 26 29 23 23 23 19 19 16 16 13 6 6 6 6 10 10 6 6 6 10 13 10 6 3 3
0 0 0 0 0 0 6 3 10 26 16 13 19 16 19 26 23 23 23 26 26 29 23 23 23 23 23 16 13 10 6 6 6 10 10 6 6 10 6 10 13 13 3 3
3 6 3 10 10 26 16 16 19 19 13 13 16 19 23 23 26 23 23 26 29 23 26 23 23 23 23 19 16 13 10 13 13 13 3 6 6 6 10 10 6 10 3 0
3 13 0 13 16 13 10 3 6 16 13 13 13 13 19 23 26 23 23 23 23 23 26 26 19 19 19 19 13 13 6 6 6 3 3 6 10 10 10 10 3 0 0 0
3 3 6 10 6 6 0 6 3 6 10 13 16 13 19 23 13 16 26 26 19 23 23 23 23 19 13 13 16 3 6 3 6 6 10 10 3 3 10 3 0 0 3 0
3 3 3 3 13 3 6 0 3 3 10 19 13 10 16 19 13 19 23 29 23 26 23 19 19 16 10 10 10 10 6 3 6 10 10 3 3 6 0 3 0 0 0 0